Time,TemperatureF,DewpointF,PressureIn,WindDirection,WindDirectionDegrees,WindSpeedMPH,WindSpeedGustMPH,Humidity,HourlyPrecipIn,Conditions,Clouds,dailyrainin,SoftwareType,DateUTC
2013-02-15 00:01:00,21.0,19.0,-100.00,SW,236,2.0,5.0,93,-99.99,,,-99.99,,2013-02-15 07:01:00,
2013-02-15 00:11:00,21.0,19.0,-100.00,SW,236,2.0,5.0,93,-99.99,,,-99.99,,2013-02-15 07:11:00,
2013-02-15 04:01:00,22.0,18.0,-100.00,WNW,296,6.0,8.0,86,-99.99,,,-99.99,,2013-02-15 11:01:00,
2013-02-15 04:11:00,22.0,18.0,-100.00,WNW,296,6.0,8.0,86,-99.99,,,-99.99,,2013-02-15 11:11:00,
2013-02-15 04:23:00,22.0,18.0,-100.00,WNW,296,6.0,8.0,86,-99.99,,,-99.99,,2013-02-15 11:23:00,
2013-02-15 04:32:00,22.0,18.0,-100.00,WNW,296,6.0,8.0,86,-99.99,,,-99.99,,2013-02-15 11:32:00,
2013-02-15 06:02:00,21.0,18.0,-100.00,NW,313,5.0,8.0,87,-99.99,,,-99.99,,2013-02-15 13:02:00,
2013-02-15 06:11:00,21.0,18.0,-100.00,NW,313,5.0,8.0,87,-99.99,,,-99.99,,2013-02-15 13:11:00,
2013-02-15 06:22:00,21.0,18.0,-100.00,WNW,284,0.0,5.0,88,-99.99,,,-99.99,,2013-02-15 13:22:00,
2013-02-15 06:32:00,20.0,17.0,-100.00,NW,305,8.0,8.0,88,-99.99,,,-99.99,,2013-02-15 13:32:00,
2013-02-15 06:41:00,20.0,17.0,-100.00,NW,305,8.0,8.0,88,-99.99,,,-99.99,,2013-02-15 13:41:00,
2013-02-15 06:52:00,20.0,17.0,-100.00,NW,305,8.0,8.0,88,-99.99,,,-99.99,,2013-02-15 13:52:00,
2013-02-15 07:01:00,20.0,17.0,-100.00,NW,305,8.0,8.0,88,-99.99,,,-99.99,,2013-02-15 14:01:00,
2013-02-15 07:11:00,20.0,17.0,-100.00,NW,305,8.0,8.0,88,-99.99,,,-99.99,,2013-02-15 14:11:00,
2013-02-15 07:52:00,21.0,18.0,-100.00,NW,316,5.0,11.0,88,-99.99,,,-99.99,,2013-02-15 14:52:00,
2013-02-15 08:01:00,21.0,18.0,-100.00,NW,316,4.0,11.0,89,-99.99,,,-99.99,,2013-02-15 15:01:00,
2013-02-15 08:11:00,21.0,18.0,-100.00,NW,316,4.0,11.0,89,-99.99,,,-99.99,,2013-02-15 15:11:00,
2013-02-15 08:21:00,21.0,18.0,-100.00,NW,316,4.0,11.0,89,-99.99,,,-99.99,,2013-02-15 15:21:00,
2013-02-15 08:32:00,21.0,18.0,-100.00,NW,316,4.0,11.0,89,-99.99,,,-99.99,,2013-02-15 15:32:00,
2013-02-15 09:32:00,26.0,23.0,-100.00,NNW,330,3.0,7.0,89,-99.99,,,-99.99,,2013-02-15 16:32:00,
2013-02-15 09:43:00,26.0,23.0,-100.00,NNW,330,3.0,7.0,89,-99.99,,,-99.99,,2013-02-15 16:43:00,
2013-02-15 09:52:00,27.0,24.0,-100.00,North,358,0.0,7.0,88,-99.99,,,-99.99,,2013-02-15 16:52:00,
2013-02-15 10:01:00,29.0,25.0,-100.00,NW,312,0.0,5.0,85,-99.99,,,-99.99,,2013-02-15 17:01:00,
2013-02-15 10:11:00,30.0,26.0,-100.00,NNW,333,0.0,0.0,84,-99.99,,,-99.99,,2013-02-15 17:11:00,
2013-02-15 10:21:00,30.0,26.0,-100.00,NNW,333,0.0,0.0,84,-99.99,,,-99.99,,2013-02-15 17:21:00,
2013-02-15 10:32:00,30.0,25.0,-100.00,North,358,5.0,5.0,81,-99.99,,,-99.99,,2013-02-15 17:32:00,
2013-02-15 10:41:00,30.0,25.0,-100.00,North,358,5.0,5.0,81,-99.99,,,-99.99,,2013-02-15 17:41:00,
2013-02-15 10:52:00,31.0,25.0,-100.00,NW,326,0.0,6.0,79,-99.99,,,-99.99,,2013-02-15 17:52:00,
2013-02-15 11:01:00,32.0,26.0,-100.00,West,261,0.0,8.0,79,-99.99,,,-99.99,,2013-02-15 18:01:00,
2013-02-15 11:11:00,32.0,26.0,-100.00,West,261,0.0,8.0,79,-99.99,,,-99.99,,2013-02-15 18:11:00,
2013-02-15 11:21:00,31.0,25.0,-100.00,West,261,0.0,0.0,77,-99.99,,,-99.99,,2013-02-15 18:21:00,
2013-02-15 11:32:00,33.0,25.0,-100.00,WNW,303,0.0,0.0,73,-99.99,,,-99.99,,2013-02-15 18:32:00,
2013-02-15 11:41:00,33.0,25.0,-100.00,WNW,303,0.0,0.0,73,-99.99,,,-99.99,,2013-02-15 18:41:00,
2013-02-15 11:52:00,34.0,25.0,-100.00,NNW,334,6.0,9.0,69,-99.99,,,-99.99,,2013-02-15 18:52:00,
2013-02-15 12:01:00,34.0,24.0,-100.00,WNW,284,0.0,10.0,67,-99.99,,,-99.99,,2013-02-15 19:01:00,
2013-02-15 12:11:00,34.0,24.0,-100.00,WNW,284,0.0,10.0,67,-99.99,,,-99.99,,2013-02-15 19:11:00,
2013-02-15 12:22:00,34.0,24.0,-100.00,WNW,296,0.0,8.0,66,-99.99,,,-99.99,,2013-02-15 19:22:00,
2013-02-15 12:32:00,35.0,24.0,-100.00,West,274,0.0,0.0,65,-99.99,,,-99.99,,2013-02-15 19:32:00,
2013-02-15 12:41:00,35.0,24.0,-100.00,West,274,0.0,0.0,65,-99.99,,,-99.99,,2013-02-15 19:41:00,
2013-02-15 12:51:00,35.0,24.0,-100.00,West,274,0.0,0.0,65,-99.99,,,-99.99,,2013-02-15 19:51:00,
2013-02-15 13:01:00,36.0,24.0,-100.00,West,264,0.0,6.0,62,-99.99,,,-99.99,,2013-02-15 20:01:00,
2013-02-15 13:11:00,36.0,24.0,-100.00,West,264,0.0,6.0,62,-99.99,,,-99.99,,2013-02-15 20:11:00,
2013-02-15 13:21:00,36.0,23.0,-100.00,WNW,284,0.0,8.0,60,-99.99,,,-99.99,,2013-02-15 20:21:00,
2013-02-15 13:32:00,36.0,24.0,-100.00,WNW,284,0.0,0.0,61,-99.99,,,-99.99,,2013-02-15 20:32:00,
2013-02-15 13:42:00,36.0,24.0,-100.00,WNW,284,0.0,0.0,61,-99.99,,,-99.99,,2013-02-15 20:42:00,
2013-02-15 13:52:00,36.0,24.0,-100.00,WNW,284,0.0,0.0,61,-99.99,,,-99.99,,2013-02-15 20:52:00,
2013-02-15 14:01:00,37.0,24.0,-100.00,NW,309,4.0,14.0,59,-99.99,,,-99.99,,2013-02-15 21:01:00,
2013-02-15 14:11:00,37.0,24.0,-100.00,NW,309,4.0,14.0,59,-99.99,,,-99.99,,2013-02-15 21:11:00,
2013-02-15 14:21:00,37.0,24.0,-100.00,NW,309,4.0,14.0,59,-99.99,,,-99.99,,2013-02-15 21:21:00,
2013-02-15 14:31:00,37.0,25.0,-100.00,WNW,298,4.0,11.0,61,-99.99,,,-99.99,,2013-02-15 21:31:00,
2013-02-15 14:42:00,37.0,25.0,-100.00,WNW,298,4.0,11.0,61,-99.99,,,-99.99,,2013-02-15 21:42:00,
2013-02-15 14:52:00,37.0,25.0,-100.00,WNW,298,4.0,11.0,61,-99.99,,,-99.99,,2013-02-15 21:52:00,
2013-02-15 15:02:00,37.0,25.0,-100.00,WNW,298,4.0,11.0,61,-99.99,,,-99.99,,2013-02-15 22:02:00,
2013-02-15 15:11:00,37.0,25.0,-100.00,WNW,298,4.0,11.0,61,-99.99,,,-99.99,,2013-02-15 22:11:00,
2013-02-15 17:02:00,38.0,28.0,-100.00,WNW,293,0.0,6.0,66,-99.99,,,-99.99,,2013-02-16 00:02:00,
2013-02-15 17:11:00,38.0,28.0,-100.00,WNW,293,0.0,6.0,66,-99.99,,,-99.99,,2013-02-16 00:11:00,
2013-02-15 17:21:00,38.0,28.0,-100.00,WNW,293,0.0,6.0,66,-99.99,,,-99.99,,2013-02-16 00:21:00,
2013-02-15 17:32:00,38.0,28.0,-100.00,WNW,293,0.0,6.0,66,-99.99,,,-99.99,,2013-02-16 00:32:00,
2013-02-15 19:01:00,38.0,30.0,-100.00,West,268,0.0,0.0,72,-99.99,,,-99.99,,2013-02-16 02:01:00,
2013-02-15 19:11:00,38.0,30.0,-100.00,West,268,0.0,0.0,72,-99.99,,,-99.99,,2013-02-16 02:11:00,
2013-02-15 19:21:00,38.0,30.0,-100.00,West,268,0.0,0.0,72,-99.99,,,-99.99,,2013-02-16 02:21:00,
2013-02-15 19:31:00,39.0,31.0,-100.00,West,261,0.0,0.0,73,-99.99,,,-99.99,,2013-02-16 02:31:00,
2013-02-15 19:42:00,39.0,31.0,-100.00,West,261,0.0,0.0,73,-99.99,,,-99.99,,2013-02-16 02:42:00,
2013-02-15 19:52:00,39.0,31.0,-100.00,West,261,0.0,0.0,73,-99.99,,,-99.99,,2013-02-16 02:52:00,
2013-02-15 20:01:00,39.0,31.0,-100.00,West,261,0.0,0.0,73,-99.99,,,-99.99,,2013-02-16 03:01:00,
2013-02-15 20:11:00,39.0,31.0,-100.00,West,261,0.0,0.0,73,-99.99,,,-99.99,,2013-02-16 03:11:00,
2013-02-15 21:01:00,39.0,32.0,-100.00,West,278,4.0,6.0,75,-99.99,,,-99.99,,2013-02-16 04:01:00,
2013-02-15 21:11:00,39.0,32.0,-100.00,West,278,4.0,6.0,75,-99.99,,,-99.99,,2013-02-16 04:11:00,
2013-02-15 21:21:00,39.0,32.0,-100.00,West,278,4.0,6.0,75,-99.99,,,-99.99,,2013-02-16 04:21:00,
2013-02-15 21:32:00,39.0,32.0,-100.00,West,278,4.0,6.0,75,-99.99,,,-99.99,,2013-02-16 04:32:00,
2013-02-15 21:41:00,39.0,32.0,-100.00,West,278,4.0,6.0,75,-99.99,,,-99.99,,2013-02-16 04:41:00,
2013-02-15 22:32:00,41.0,34.0,-100.00,NW,312,5.0,8.0,75,-99.99,,,-99.99,,2013-02-16 05:32:00,
2013-02-15 22:42:00,41.0,34.0,-100.00,NW,312,5.0,8.0,75,-99.99,,,-99.99,,2013-02-16 05:42:00,
2013-02-15 22:52:00,41.0,34.0,-100.00,NW,312,5.0,8.0,75,-99.99,,,-99.99,,2013-02-16 05:52:00,
2013-02-15 23:02:00,41.0,34.0,-100.00,NW,316,8.0,9.0,76,-99.99,,,-99.99,,2013-02-16 06:02:00,
2013-02-15 23:11:00,41.0,34.0,-100.00,NW,316,8.0,9.0,76,-99.99,,,-99.99,,2013-02-16 06:11:00,
2013-02-15 23:21:00,41.0,34.0,-100.00,NW,316,8.0,9.0,76,-99.99,,,-99.99,,2013-02-16 06:21:00,
2013-02-15 23:32:00,41.0,34.0,-100.00,NNW,327,8.0,9.0,77,-99.99,,,-99.99,,2013-02-16 06:32:00,
2013-02-15 23:42:00,41.0,34.0,-100.00,NNW,327,8.0,9.0,77,-99.99,,,-99.99,,2013-02-16 06:42:00,
2013-02-15 23:52:00,40.0,34.0,-100.00,NW,320,8.0,8.0,78,-99.99,,,-99.99,,2013-02-16 06:52:00,